• In Deutschland
  • Länderverzeichnis
  • Für 7 Tage
  • Wassertemperatur
  • Satellitenkarten
  • Wetterkarte
  • Widgets
  • user-avatar
    Anmelden

    Stündliche Wetter Weil am Rhein

    Heute, 17 Oktober, Dienstag

    Zeit Temperatur Niederschläge Wind Luftdruck Luftfeuchtigkeit
    00:00 +14°C° 0 mm 1 m/S 745 mmHg 65%
    01:00 +14°C° 0 mm 1 m/S 745 mmHg 65%
    02:00 +14°C° 0 mm 1 m/S 745 mmHg 65%
    03:00 +13°C° 0 mm 1 m/S 745 mmHg 64%
    04:00 +13°C° 0 mm 1 m/S 745 mmHg 63%
    05:00 +13°C° 0 mm 1 m/S 744 mmHg 63%
    06:00 +13°C° 0 mm 1 m/S 744 mmHg 62%
    07:00 +12°C° 0 mm 1 m/S 744 mmHg 62%
    08:00 +15°C° 0 mm 1 m/S 744 mmHg 57%
    09:00 +18°C° 0 mm 1 m/S 744 mmHg 53%
    10:00 +21°C° 0 mm 1 m/S 744 mmHg 49%
    11:00 +22°C° 0 mm 1 m/S 744 mmHg 45%
    12:00 +22°C° 0 mm 0 m/S 743 mmHg 41%
    13:00 +23°C° 0 mm 0 m/S 743 mmHg 37%
    14:00 +23°C° 0 mm 0 m/S 742 mmHg 41%
    15:00 +22°C° 0 mm 0 m/S 742 mmHg 44%
    16:00 +22°C° 0 mm 0 m/S 741 mmHg 48%
    17:00 +19°C° 0 mm 0 m/S 741 mmHg 52%
    18:00 +17°C° 0 mm 0 m/S 741 mmHg 57%
    19:00 +15°C° 0 mm 0 m/S 741 mmHg 61%
    20:00 +15°C° 0 mm 1 m/S 741 mmHg 61%
    21:00 +15°C° 0 mm 1 m/S 741 mmHg 62%
    22:00 +14°C° 0 mm 1 m/S 741 mmHg 63%
    23:00 +14°C° 0 mm 1 m/S 741 mmHg 63%

    Morgen, 18 Oktober, Mittwoch

    Zeit Temperatur Niederschläge Wind Luftdruck Luftfeuchtigkeit
    00:00 +14°C° 0 mm 1 m/S 740 mmHg 63%
    01:00 +13°C° 0 mm 1 m/S 740 mmHg 64%
    02:00 +13°C° 0 mm 1 m/S 740 mmHg 65%
    03:00 +13°C° 0 mm 1 m/S 740 mmHg 65%
    04:00 +12°C° 0 mm 1 m/S 740 mmHg 66%
    05:00 +12°C° 0 mm 1 m/S 739 mmHg 67%
    06:00 +12°C° 0 mm 1 m/S 739 mmHg 68%
    07:00 +12°C° 0 mm 1 m/S 739 mmHg 68%
    08:00 +14°C° 0 mm 1 m/S 739 mmHg 63%
    09:00 +16°C° 0 mm 1 m/S 739 mmHg 57%
    10:00 +20°C° 0 mm 1 m/S 739 mmHg 51%
    11:00 +21°C° 0 mm 1 m/S 739 mmHg 48%
    12:00 +22°C° 0 mm 1 m/S 738 mmHg 45%
    13:00 +23°C° 0 mm 1 m/S 738 mmHg 42%
    14:00 +21°C° 0 mm 0 m/S 738 mmHg 46%
    15:00 +21°C° 0 mm 0 m/S 738 mmHg 49%
    16:00 +20°C° 0 mm 0 m/S 737 mmHg 53%
    17:00 +18°C° 0 mm 0 m/S 737 mmHg 58%
    18:00 +16°C° 0 mm 0 m/S 737 mmHg 63%
    19:00 +14°C° 0 mm 0 m/S 738 mmHg 68%
    20:00 +14°C° 0 mm 1 m/S 738 mmHg 70%
    21:00 +14°C° 0 mm 1 m/S 738 mmHg 71%
    22:00 +13°C° 0 mm 1 m/S 738 mmHg 73%
    23:00 +13°C° 0 mm 1 m/S 738 mmHg 73%

    übermorgen, 19 Oktober, Donnerstag

    Zeit Temperatur Niederschläge Wind Luftdruck Luftfeuchtigkeit
    00:00 +13°C° 0 mm 1 m/S 738 mmHg 74%
    01:00 +12°C° 0 mm 1 m/S 738 mmHg 75%
    02:00 +12°C° 0 mm 1 m/S 737 mmHg 76%
    03:00 +12°C° 0 mm 1 m/S 737 mmHg 76%
    04:00 +12°C° 0 mm 1 m/S 737 mmHg 77%
    05:00 +11°C° 0 mm 1 m/S 737 mmHg 76%
    06:00 +11°C° 0 mm 1 m/S 737 mmHg 76%
    07:00 +11°C° 0 mm 1 m/S 737 mmHg 76%
    08:00 +13°C° 0 mm 1 m/S 737 mmHg 69%
    09:00 +16°C° 0 mm 1 m/S 737 mmHg 62%
    10:00 +19°C° 0 mm 1 m/S 737 mmHg 55%
    11:00 +20°C° 0 mm 1 m/S 737 mmHg 52%
    12:00 +21°C° 0 mm 1 m/S 737 mmHg 50%
    13:00 +22°C° 0 mm 1 m/S 737 mmHg 47%
    14:00 +22°C° 0 mm 1 m/S 737 mmHg 49%
    15:00 +22°C° 0 mm 1 m/S 737 mmHg 52%
    16:00 +22°C° 0 mm 1 m/S 736 mmHg 55%
    17:00 +20°C° 0 mm 1 m/S 736 mmHg 59%
    18:00 +18°C° 0 mm 1 m/S 736 mmHg 63%
    19:00 +15°C° 0 mm 1 m/S 736 mmHg 67%
    20:00 +15°C° 0 mm 1 m/S 737 mmHg 68%
    21:00 +15°C° 0 mm 1 m/S 737 mmHg 68%
    22:00 +14°C° 0 mm 1 m/S 737 mmHg 68%
    23:00 +14°C° 0 mm 1 m/S 737 mmHg 70%

    20 Oktober, Freitag

    Zeit Temperatur Niederschläge Wind Luftdruck Luftfeuchtigkeit
    00:00 +14°C° 0 mm 1 m/S 737 mmHg 71%
    01:00 +13°C° 0 mm 1 m/S 737 mmHg 72%
    02:00 +13°C° 0 mm 1 m/S 737 mmHg 72%
    03:00 +14°C° 0 mm 1 m/S 737 mmHg 71%
    04:00 +14°C° 0 mm 1 m/S 738 mmHg 71%
    05:00 +14°C° 0 mm 1 m/S 738 mmHg 72%
    06:00 +13°C° 0 mm 2 m/S 738 mmHg 74%
    07:00 +13°C° 0 mm 2 m/S 738 mmHg 75%
    08:00 +15°C° 0 mm 2 m/S 739 mmHg 73%
    09:00 +16°C° 0 mm 2 m/S 739 mmHg 71%
    10:00 +17°C° 0 mm 2 m/S 739 mmHg 69%
    11:00 +18°C° 0 mm 3 m/S 739 mmHg 66%
    12:00 +19°C° 0 mm 3 m/S 739 mmHg 63%
    13:00 +21°C° 0 mm 3 m/S 739 mmHg 60%
    14:00 +21°C° 0 mm 3 m/S 739 mmHg 62%
    15:00 +21°C° 0 mm 2 m/S 739 mmHg 63%
    16:00 +22°C° 0 mm 1 m/S 739 mmHg 65%
    17:00 +20°C° 0 mm 1 m/S 739 mmHg 71%
    18:00 +18°C° 0 mm 1 m/S 739 mmHg 77%
    19:00 +15°C° 0 mm 1 m/S 739 mmHg 84%
    20:00 +15°C° 0 mm 1 m/S 739 mmHg 84%
    21:00 +15°C° 0 mm 1 m/S 739 mmHg 84%
    22:00 +15°C° 0 mm 1 m/S 739 mmHg 85%
    23:00 +14°C° 0 mm 1 m/S 738 mmHg 84%

    21 Oktober, Samstag

    Zeit Temperatur Niederschläge Wind Luftdruck Luftfeuchtigkeit
    00:00 +14°C° 0 mm 1 m/S 738 mmHg 84%
    01:00 +14°C° 0 mm 2 m/S 738 mmHg 84%
    02:00 +14°C° 0 mm 2 m/S 738 mmHg 82%
    03:00 +13°C° 0 mm 2 m/S 738 mmHg 81%
    04:00 +13°C° 0 mm 2 m/S 737 mmHg 80%
    05:00 +14°C° 0 mm 2 m/S 737 mmHg 78%
    06:00 +14°C° 0 mm 2 m/S 737 mmHg 75%
    07:00 +14°C° 0 mm 2 m/S 737 mmHg 73%
    08:00 +15°C° 0,2 mm 2 m/S 738 mmHg 73%
    09:00 +16°C° 0,2 mm 3 m/S 738 mmHg 74%
    10:00 +17°C° 0,2 mm 3 m/S 738 mmHg 74%
    11:00 +17°C° 0,6 mm 3 m/S 738 mmHg 75%
    12:00 +17°C° 0,6 mm 3 m/S 738 mmHg 76%
    13:00 +18°C° 0,6 mm 4 m/S 737 mmHg 78%
    14:00 +17°C° 1,1 mm 3 m/S 738 mmHg 81%
    15:00 +16°C° 1,1 mm 3 m/S 738 mmHg 84%
    16:00 +16°C° 1,1 mm 3 m/S 738 mmHg 87%
    17:00 +14°C° 0,6 mm 3 m/S 738 mmHg 88%
    18:00 +13°C° 0,6 mm 3 m/S 738 mmHg 88%
    19:00 +13°C° 0,6 mm 3 m/S 738 mmHg 88%
    20:00 +12°C° 0,5 mm 3 m/S 739 mmHg 88%
    21:00 +12°C° 0,5 mm 3 m/S 739 mmHg 88%
    22:00 +11°C° 0,5 mm 3 m/S 739 mmHg 87%
    23:00 +11°C° 0,2 mm 3 m/S 739 mmHg 88%

    22 Oktober, Sonntag

    Zeit Temperatur Niederschläge Wind Luftdruck Luftfeuchtigkeit
    00:00 +11°C° 0,2 mm 3 m/S 739 mmHg 88%
    01:00 +10°C° 0,2 mm 3 m/S 739 mmHg 88%
    02:00 +10°C° 0,1 mm 3 m/S 739 mmHg 88%
    03:00 +10°C° 0,1 mm 3 m/S 739 mmHg 89%
    04:00 +9°C° 0,1 mm 3 m/S 739 mmHg 89%
    05:00 +9°C° 0,1 mm 3 m/S 739 mmHg 89%
    06:00 +9°C° 0,1 mm 3 m/S 739 mmHg 90%
    07:00 +9°C° 0,1 mm 3 m/S 739 mmHg 90%
    08:00 +8°C° 0,1 mm 4 m/S 739 mmHg 86%
    09:00 +8°C° 0,1 mm 4 m/S 739 mmHg 83%
    10:00 +9°C° 0,1 mm 5 m/S 740 mmHg 79%
    11:00 +10°C° 0,1 mm 5 m/S 740 mmHg 74%
    12:00 +10°C° 0,1 mm 5 m/S 740 mmHg 68%
    13:00 +12°C° 0,1 mm 5 m/S 740 mmHg 62%
    14:00 +10°C° 0,1 mm 5 m/S 740 mmHg 63%
    15:00 +10°C° 0,1 mm 5 m/S 740 mmHg 63%
    16:00 +10°C° 0,1 mm 5 m/S 740 mmHg 63%
    17:00 +10°C° 0,1 mm 4 m/S 741 mmHg 69%
    18:00 +8°C° 0,1 mm 4 m/S 741 mmHg 74%
    19:00 +8°C° 0,1 mm 3 m/S 742 mmHg 79%
    20:00 +8°C° 0,1 mm 3 m/S 742 mmHg 80%
    21:00 +8°C° 0,1 mm 3 m/S 742 mmHg 82%
    22:00 +7°C° 0,1 mm 3 m/S 742 mmHg 83%
    23:00 +7°C° 0,2 mm 3 m/S 742 mmHg 83%
    Mehr zeigen